sat.trackr.live / text

‹ back to catalog

STARLINK-32027

NORAD 60143 · 2024-120J

PAYLOAD ACTIVE UNKNOWN

§ Identity

Operator
Country
US
Launch date
2024-06-27
Launch site
AFETR
Launch vehicle
Mass (kg)
RCS (m²)

Purposes: comms

External: N2YO · Heavens-Above · Gunter

§ Orbital elements

Epoch: 2026-05-25T04:40:01.179840Z

Period
94.11 min
Inclination
53.1607°
Eccentricity
0.0000846
Mean motion
15.30200808 rev/d
Perigee alt
474.6 km
Apogee alt
475.8 km
Semi-major
6,853.3 km
B*
3.7040e-5
RAAN
324.2265°
Arg perigee
93.2004°
Mean anomaly
266.9094°
Rev number
10,817

§ Raw data

STARLINK-320271 60143U 24120J   26145.19445810  .00000738  00000+0  37040-4 0  99982 60143  53.1607 324.2265 0000846  93.2004 266.9094 15.30200808108178

JSON: /api/v1/satellites/60143 · /tle

For live sub-satellite position, see the globe view (requires WebGL).

§ Visibility from observer

Set your observer location to see the next 7 days of passes ≥ 10°. The values pass through the URL so the page stays shareable.

No JS? Fill the form by hand. The geolocation button needs JavaScript.